TimeMST,TemperatureF,Dew PointF,Humidity,Sea Level PressureIn,VisibilityMPH,Wind Direction,Wind SpeedMPH,Gust SpeedMPH,PrecipitationIn,Events,Conditions,WindDirDegrees,DateUTC
12:54 AM,25.0,15.1,66,30.11,10.0,NNW,13.8,24.2,N/A,,Scattered Clouds,340,2013-02-27 07:54:00
1:54 AM,24.1,15.1,69,30.14,10.0,NNW,12.7,-,N/A,,Partly Cloudy,340,2013-02-27 08:54:00
2:54 AM,23.0,15.1,72,30.17,10.0,NNW,13.8,-,N/A,,Scattered Clouds,330,2013-02-27 09:54:00
3:54 AM,21.9,14.0,72,30.19,10.0,NNW,6.9,-,N/A,,Partly Cloudy,330,2013-02-27 10:54:00
4:54 AM,21.9,14.0,72,30.22,10.0,North,9.2,-,N/A,,Clear,350,2013-02-27 11:54:00
5:54 AM,19.9,12.0,71,30.26,10.0,WNW,6.9,-,N/A,,Overcast,300,2013-02-27 12:54:00
6:54 AM,15.1,10.0,80,30.31,10.0,WSW,8.1,-,N/A,,Partly Cloudy,250,2013-02-27 13:54:00
8:54 AM,28.0,14.0,56,30.30,10.0,NNW,12.7,-,N/A,,Clear,340,2013-02-27 15:54:00
9:54 AM,30.0,14.0,51,30.31,10.0,North,12.7,20.7,N/A,,Clear,350,2013-02-27 16:54:00
10:54 AM,32.0,12.9,45,30.30,-9999.0,North,4.6,-,N/A,,Clear,10,2013-02-27 17:54:00
11:54 AM,35.1,12.9,40,30.27,10.0,North,10.4,-,N/A,,Unknown,360,2013-02-27 18:54:00
12:54 PM,36.0,12.9,39,30.24,10.0,North,8.1,-,N/A,,Clear,350,2013-02-27 19:54:00
1:54 PM,35.1,12.0,39,30.23,10.0,Variable,4.6,-,N/A,,Clear,0,2013-02-27 20:54:00
2:54 PM,37.0,10.9,34,30.22,10.0,Variable,3.5,-,N/A,,Clear,0,2013-02-27 21:54:00
3:54 PM,36.0,10.9,36,30.21,10.0,East,4.6,-,N/A,,Clear,90,2013-02-27 22:54:00
4:54 PM,36.0,10.0,34,30.22,10.0,East,5.8,-,N/A,,Clear,80,2013-02-27 23:54:00
5:54 PM,30.9,9.0,40,30.25,10.0,ESE,4.6,-,N/A,,Clear,110,2013-02-28 00:54:00
7:54 PM,28.0,9.0,45,30.27,10.0,Calm,Calm,-,N/A,,Clear,0,2013-02-28 02:54:00
8:54 PM,21.9,10.0,60,30.29,10.0,North,5.8,-,N/A,,Clear,360,2013-02-28 03:54:00
9:54 PM,21.0,10.0,63,30.30,10.0,NE,5.8,-,N/A,,Clear,40,2013-02-28 04:54:00